STARLINK-35901

Last updated on Fri Dec 19 2025 00:02:10 GMT+0000 (Coordinated Universal Time)

1 67043U 25294P 25351.83335648 -.01350043 54332-3 -32067-2 0 9996 2 67043 43.0000 151.2742 0001804 279.2897 140.0090 15.95831027 2128
UTC large
Height (km)
Speed (km/s)
/
Latitude / Longitude
Inclination (degrees)
Orbital Period (minutes)
Azimuth
Elevation
Range (km)
Doppler Factor

Next 0 passes for location: London (51.5072 / 0.1276)

Sorry there are no passes over London.